TimeMDT,TemperatureF,Dew PointF,Humidity,Sea Level PressureIn,VisibilityMPH,Wind Direction,Wind SpeedMPH,Gust SpeedMPH,PrecipitationIn,Events,Conditions,WindDirDegrees,DateUTC
12:53 AM,43.0,30.9,62,30.12,10.0,ESE,5.8,-,N/A,,Clear,110,2013-10-27 06:53:00
1:53 AM,43.0,28.9,58,30.10,10.0,ESE,5.8,-,N/A,,Clear,120,2013-10-27 07:53:00
2:53 AM,42.1,28.0,58,30.07,10.0,ESE,5.8,-,N/A,,Clear,120,2013-10-27 08:53:00
3:53 AM,41.0,28.0,60,30.05,10.0,East,8.1,-,N/A,,Clear,100,2013-10-27 09:53:00
4:53 AM,39.9,27.0,60,30.02,10.0,East,9.2,-,N/A,,Clear,100,2013-10-27 10:53:00
5:53 AM,39.0,27.0,62,30.01,10.0,East,8.1,-,N/A,,Clear,100,2013-10-27 11:53:00
6:53 AM,35.1,27.0,72,30.01,10.0,ENE,3.5,-,N/A,,Clear,60,2013-10-27 12:53:00
7:53 AM,39.0,28.0,65,29.99,10.0,East,9.2,-,N/A,,Clear,80,2013-10-27 13:53:00
8:53 AM,41.0,28.9,62,29.96,10.0,East,8.1,-,N/A,,Clear,80,2013-10-27 14:53:00
9:53 AM,48.0,28.0,46,29.92,10.0,East,6.9,-,N/A,,Clear,90,2013-10-27 15:53:00
10:53 AM,53.1,30.9,43,29.87,10.0,ENE,9.2,-,N/A,,Clear,70,2013-10-27 16:53:00
11:53 AM,57.9,27.0,31,29.83,10.0,East,4.6,-,N/A,,Clear,90,2013-10-27 17:53:00
12:53 PM,64.0,21.9,20,29.77,10.0,ENE,3.5,-,N/A,,Clear,70,2013-10-27 18:53:00
1:53 PM,66.9,19.0,16,29.70,10.0,Variable,5.8,-,N/A,,Clear,0,2013-10-27 19:53:00
2:53 PM,69.1,19.0,15,29.63,10.0,East,8.1,-,N/A,,Clear,90,2013-10-27 20:53:00
3:53 PM,66.9,19.9,17,29.59,10.0,NE,9.2,-,N/A,,Clear,50,2013-10-27 21:53:00
4:53 PM,64.9,18.0,16,29.58,10.0,NE,3.5,-,N/A,,Overcast,50,2013-10-27 22:53:00
5:53 PM,64.9,19.9,18,29.57,10.0,SE,16.1,25.3,N/A,,Overcast,140,2013-10-27 23:53:00
6:53 PM,59.0,28.0,31,29.55,10.0,North,9.2,-,N/A,,Scattered Clouds,360,2013-10-28 00:53:00
7:53 PM,60.1,30.9,33,29.59,5.0,ESE,25.3,40.3,0.00,Rain,Light Rain,120,2013-10-28 01:53:00
8:53 PM,57.0,34.0,42,29.56,10.0,NE,17.3,21.9,0.00,,Mostly Cloudy,40,2013-10-28 02:53:00
9:53 PM,54.0,36.0,51,29.54,10.0,North,9.2,-,N/A,,Overcast,350,2013-10-28 03:53:00
10:53 PM,54.0,36.0,51,29.52,10.0,North,18.4,24.2,0.00,Rain,Light Rain,360,2013-10-28 04:53:00
11:43 PM,52.0,39.0,61,29.59,10.0,ENE,11.5,-,0.00,Rain,Light Rain,70,2013-10-28 05:43:00
11:53 PM,51.1,39.9,66,29.54,10.0,ENE,11.5,-,0.01,Rain,Light Rain,70,2013-10-28 05:53:00